Year,Month,Day,Hour,Minute,Value (Times are PST for temperature in C)
2013,07,27,00,00,13.90
2013,07,27,00,01,13.80
2013,07,27,00,02,13.80
2013,07,27,00,03,13.80
2013,07,27,00,04,13.80
2013,07,27,00,05,13.80
2013,07,27,00,06,13.70
2013,07,27,00,07,13.70
2013,07,27,00,08,13.70
2013,07,27,00,09,13.70
2013,07,27,00,10,13.70
2013,07,27,00,11,13.70
2013,07,27,00,12,13.70
2013,07,27,00,13,13.70
2013,07,27,00,14,13.70
2013,07,27,00,15,13.70
2013,07,27,00,16,13.70
2013,07,27,00,17,13.70
2013,07,27,00,18,13.60
2013,07,27,00,19,13.60
2013,07,27,00,20,13.60
2013,07,27,00,21,13.60
2013,07,27,00,22,13.70
2013,07,27,00,23,13.70
2013,07,27,00,24,13.70
2013,07,27,00,25,13.70
2013,07,27,00,26,13.60
2013,07,27,00,27,13.60
2013,07,27,00,28,13.60
2013,07,27,00,29,13.60
2013,07,27,00,30,13.60
2013,07,27,00,31,13.60
2013,07,27,00,32,13.60
2013,07,27,00,33,13.60
2013,07,27,00,34,13.60
2013,07,27,00,35,13.60
2013,07,27,00,36,13.60
2013,07,27,00,37,13.60
2013,07,27,00,38,13.70
2013,07,27,00,39,13.70
2013,07,27,00,40,13.70
2013,07,27,00,41,13.70
2013,07,27,00,42,13.70
2013,07,27,00,43,13.60
2013,07,27,00,44,13.60
2013,07,27,00,45,13.60
2013,07,27,00,46,13.60
2013,07,27,00,47,13.60
2013,07,27,00,48,13.60
2013,07,27,00,49,13.60
2013,07,27,00,50,13.60
2013,07,27,00,51,13.60
2013,07,27,00,52,13.60
2013,07,27,00,53,13.60
2013,07,27,00,54,13.60
2013,07,27,00,55,13.60
2013,07,27,00,56,13.60
2013,07,27,00,57,13.60
2013,07,27,00,58,13.60
2013,07,27,00,59,13.60
2013,07,27,01,00,13.60
2013,07,27,01,01,13.60
2013,07,27,01,02,13.60
2013,07,27,01,03,13.60
2013,07,27,01,04,13.60
2013,07,27,01,05,13.60
2013,07,27,01,06,13.60
2013,07,27,01,07,13.50
2013,07,27,01,08,13.60
2013,07,27,01,09,13.60
2013,07,27,01,10,13.60
2013,07,27,01,11,13.60
2013,07,27,01,12,13.60
2013,07,27,01,13,13.60
2013,07,27,01,14,13.60
2013,07,27,01,15,13.60
2013,07,27,01,16,13.60
2013,07,27,01,17,13.60
2013,07,27,01,18,13.60
2013,07,27,01,19,13.60
2013,07,27,01,20,13.50
2013,07,27,01,21,13.50
2013,07,27,01,22,13.50
2013,07,27,01,23,13.50
2013,07,27,01,24,13.50
2013,07,27,01,25,13.50
2013,07,27,01,26,13.50
2013,07,27,01,27,13.50
2013,07,27,01,28,13.50
2013,07,27,01,29,13.50
2013,07,27,01,30,13.60
2013,07,27,01,31,13.50
2013,07,27,01,32,13.50
2013,07,27,01,33,13.60
2013,07,27,01,34,13.60
2013,07,27,01,35,13.60
2013,07,27,01,36,13.60
2013,07,27,01,37,13.60
2013,07,27,01,38,13.60
2013,07,27,01,39,13.60
2013,07,27,01,40,13.60
2013,07,27,01,41,13.70
2013,07,27,01,42,13.70
2013,07,27,01,43,13.70
2013,07,27,01,44,13.80
2013,07,27,01,45,13.80
2013,07,27,01,46,13.90
2013,07,27,01,47,13.90
2013,07,27,01,48,13.90
2013,07,27,01,49,13.90
2013,07,27,01,50,14.00
2013,07,27,01,51,14.00
2013,07,27,01,52,14.10
2013,07,27,01,53,14.10
2013,07,27,01,54,14.10
2013,07,27,01,55,14.10
2013,07,27,01,56,14.10
2013,07,27,01,57,14.10
2013,07,27,01,58,14.10
2013,07,27,01,59,14.10
2013,07,27,02,00,14.10
2013,07,27,02,01,14.10
2013,07,27,02,02,14.10
2013,07,27,02,03,14.10
2013,07,27,02,04,14.10
2013,07,27,02,05,14.00
2013,07,27,02,06,14.00
2013,07,27,02,07,14.00
2013,07,27,02,08,14.00
2013,07,27,02,09,13.90
2013,07,27,02,10,13.90
2013,07,27,02,11,13.90
2013,07,27,02,12,13.80
2013,07,27,02,13,13.80
2013,07,27,02,14,13.80
2013,07,27,02,15,13.70
2013,07,27,02,16,13.70
2013,07,27,02,17,13.70
2013,07,27,02,18,13.60
2013,07,27,02,19,13.60
2013,07,27,02,20,13.50
2013,07,27,02,21,13.40
2013,07,27,02,22,13.40
2013,07,27,02,23,13.30
2013,07,27,02,24,13.30
2013,07,27,02,25,13.20
2013,07,27,02,26,13.20
2013,07,27,02,27,13.20
2013,07,27,02,28,13.10
2013,07,27,02,29,13.10
2013,07,27,02,30,13.00
2013,07,27,02,31,12.90
2013,07,27,02,32,12.90
2013,07,27,02,33,12.90
2013,07,27,02,34,12.80
2013,07,27,02,35,12.80
2013,07,27,02,36,12.70
2013,07,27,02,37,12.70
2013,07,27,02,38,12.60
2013,07,27,02,39,12.60
2013,07,27,02,40,12.60
2013,07,27,02,41,12.50
2013,07,27,02,42,12.50
2013,07,27,02,43,12.40
2013,07,27,02,44,12.40
2013,07,27,02,45,12.40
2013,07,27,02,46,12.40
2013,07,27,02,47,12.30
2013,07,27,02,48,12.30
2013,07,27,02,49,12.20
2013,07,27,02,50,12.20
2013,07,27,02,51,12.20
2013,07,27,02,52,12.10
2013,07,27,02,53,12.10
2013,07,27,02,54,12.00
2013,07,27,02,55,12.00
2013,07,27,02,56,11.90
2013,07,27,02,57,11.90
2013,07,27,02,58,11.90
2013,07,27,02,59,11.80
2013,07,27,03,00,11.80
2013,07,27,03,01,11.80
2013,07,27,03,02,11.80
2013,07,27,03,03,11.70
2013,07,27,03,04,11.70
2013,07,27,03,05,11.70
2013,07,27,03,06,11.70
2013,07,27,03,07,11.60
2013,07,27,03,08,11.60
2013,07,27,03,09,11.60
2013,07,27,03,10,11.60
2013,07,27,03,11,11.60
2013,07,27,03,12,11.60
2013,07,27,03,13,11.50
2013,07,27,03,14,11.50
2013,07,27,03,15,11.40
2013,07,27,03,16,11.40
2013,07,27,03,17,11.40
2013,07,27,03,18,11.40
2013,07,27,03,19,11.40
2013,07,27,03,20,11.30
2013,07,27,03,21,11.30
2013,07,27,03,22,11.30
2013,07,27,03,23,11.30
2013,07,27,03,24,11.30
2013,07,27,03,25,11.30
2013,07,27,03,26,11.30
2013,07,27,03,27,11.20
2013,07,27,03,28,11.20
2013,07,27,03,29,11.20
2013,07,27,03,30,11.20
2013,07,27,03,31,11.20
2013,07,27,03,32,11.20
2013,07,27,03,33,11.10
2013,07,27,03,34,11.10
2013,07,27,03,35,11.10
2013,07,27,03,36,11.10
2013,07,27,03,37,11.10
2013,07,27,03,38,11.10
2013,07,27,03,39,11.10
2013,07,27,03,40,11.10
2013,07,27,03,41,11.10
2013,07,27,03,42,11.10
2013,07,27,03,43,11.10
2013,07,27,03,44,11.00
2013,07,27,03,45,11.00
2013,07,27,03,46,11.00
2013,07,27,03,47,11.00
2013,07,27,03,48,11.00
2013,07,27,03,49,11.00
2013,07,27,03,50,11.00
2013,07,27,03,51,11.00
2013,07,27,03,52,11.00
2013,07,27,03,53,10.90
2013,07,27,03,54,10.90
2013,07,27,03,55,10.90
2013,07,27,03,56,10.90
2013,07,27,03,57,10.90
2013,07,27,03,58,10.90
2013,07,27,03,59,10.90
2013,07,27,04,00,10.90
2013,07,27,04,01,10.90
2013,07,27,04,02,10.90
2013,07,27,04,03,10.90
2013,07,27,04,04,10.90
2013,07,27,04,05,10.90
2013,07,27,04,06,10.80
2013,07,27,04,07,10.80
2013,07,27,04,08,10.80
2013,07,27,04,09,10.80
2013,07,27,04,10,10.80
2013,07,27,04,11,10.80
2013,07,27,04,12,10.80
2013,07,27,04,13,10.80
2013,07,27,04,14,10.80
2013,07,27,04,15,10.80
2013,07,27,04,16,10.80
2013,07,27,04,17,10.80
2013,07,27,04,18,10.80
2013,07,27,04,19,10.80
2013,07,27,04,20,10.80
2013,07,27,04,21,10.70
2013,07,27,04,22,10.70
2013,07,27,04,23,10.70
2013,07,27,04,24,10.70
2013,07,27,04,25,10.70
2013,07,27,04,26,10.70
2013,07,27,04,27,10.70
2013,07,27,04,28,10.70
2013,07,27,04,29,10.70
2013,07,27,04,30,10.70
2013,07,27,04,31,10.60
2013,07,27,04,32,10.60
2013,07,27,04,33,10.60
2013,07,27,04,34,10.60
2013,07,27,04,35,10.60
2013,07,27,04,36,10.60
2013,07,27,04,37,10.60
2013,07,27,04,38,10.60
2013,07,27,04,39,10.60
2013,07,27,04,40,10.60
2013,07,27,04,41,10.60
2013,07,27,04,42,10.60
2013,07,27,04,43,10.60
2013,07,27,04,44,10.60
2013,07,27,04,45,10.50
2013,07,27,04,46,10.50
2013,07,27,04,47,10.50
2013,07,27,04,48,10.50
2013,07,27,04,49,10.50
2013,07,27,04,50,10.40
2013,07,27,04,51,10.40
2013,07,27,04,52,10.40
2013,07,27,04,53,10.40
2013,07,27,04,54,10.40
2013,07,27,04,55,10.40
2013,07,27,04,56,10.40
2013,07,27,04,57,10.40
2013,07,27,04,58,10.40
2013,07,27,04,59,10.30
2013,07,27,05,00,10.30
2013,07,27,05,01,10.30
2013,07,27,05,02,10.30
2013,07,27,05,03,10.30
2013,07,27,05,04,10.30
2013,07,27,05,05,10.30
2013,07,27,05,06,10.20
2013,07,27,05,07,10.20
2013,07,27,05,08,10.20
2013,07,27,05,09,10.20
2013,07,27,05,10,10.20
2013,07,27,05,11,10.20
2013,07,27,05,12,10.20
2013,07,27,05,13,10.20
2013,07,27,05,14,10.30
2013,07,27,05,15,10.30
2013,07,27,05,16,10.30
2013,07,27,05,17,10.30
2013,07,27,05,18,10.30
2013,07,27,05,19,10.30
2013,07,27,05,20,10.30
2013,07,27,05,21,10.30
2013,07,27,05,22,10.30
2013,07,27,05,23,10.30
2013,07,27,05,24,10.20
2013,07,27,05,25,10.20
2013,07,27,05,26,10.20
2013,07,27,05,27,10.20
2013,07,27,05,28,10.20
2013,07,27,05,29,10.20
2013,07,27,05,30,10.20
2013,07,27,05,31,10.20
2013,07,27,05,32,10.20
2013,07,27,05,33,10.20
2013,07,27,05,34,10.20
2013,07,27,05,35,10.20
2013,07,27,05,36,10.20
2013,07,27,05,37,10.10
2013,07,27,05,38,10.10
2013,07,27,05,39,10.10
2013,07,27,05,40,10.10
2013,07,27,05,41,10.10
2013,07,27,05,42,10.10
2013,07,27,05,43,10.10
2013,07,27,05,44,10.10
2013,07,27,05,45,10.10
2013,07,27,05,46,10.10
2013,07,27,05,47,10.10
2013,07,27,05,48,10.10
2013,07,27,05,49,10.10
2013,07,27,05,50,10.10
2013,07,27,05,51,10.10
2013,07,27,05,52,10.10
2013,07,27,05,53,10.10
2013,07,27,05,54,10.10
2013,07,27,05,55,10.10
2013,07,27,05,56,10.10
2013,07,27,05,57,10.10
2013,07,27,05,58,10.10
2013,07,27,05,59,10.10
2013,07,27,06,00,10.10
2013,07,27,06,01,10.10
2013,07,27,06,02,10.10
2013,07,27,06,03,10.10
2013,07,27,06,04,10.10
2013,07,27,06,05,10.10
2013,07,27,06,06,10.00
2013,07,27,06,07,10.00
2013,07,27,06,08,10.00
2013,07,27,06,09,10.00
2013,07,27,06,10,10.00
2013,07,27,06,11,10.00
2013,07,27,06,12,10.00
2013,07,27,06,13,10.00
2013,07,27,06,14,9.90
2013,07,27,06,15,9.90
2013,07,27,06,16,9.90
2013,07,27,06,17,9.90
2013,07,27,06,18,9.90
2013,07,27,06,19,9.90
2013,07,27,06,20,9.90
2013,07,27,06,21,9.80
2013,07,27,06,22,9.80
2013,07,27,06,23,9.80
2013,07,27,06,24,9.90
2013,07,27,06,25,9.90
2013,07,27,06,26,9.90
2013,07,27,06,27,9.90
2013,07,27,06,28,9.90
2013,07,27,06,29,9.90
2013,07,27,06,30,10.00
2013,07,27,06,31,10.10
2013,07,27,06,32,10.10
2013,07,27,06,33,10.10
2013,07,27,06,34,10.20
2013,07,27,06,35,10.20
2013,07,27,06,36,10.20
2013,07,27,06,37,10.20
2013,07,27,06,38,10.30
2013,07,27,06,39,10.30
2013,07,27,06,40,10.30
2013,07,27,06,41,10.30
2013,07,27,06,42,10.30
2013,07,27,06,43,10.40
2013,07,27,06,44,10.40
2013,07,27,06,45,10.40
2013,07,27,06,46,10.40
2013,07,27,06,47,10.40
2013,07,27,06,48,10.40
2013,07,27,06,49,10.50
2013,07,27,06,50,10.50
2013,07,27,06,51,10.50
2013,07,27,06,52,10.50
2013,07,27,06,53,10.60
2013,07,27,06,54,10.60
2013,07,27,06,55,10.60
2013,07,27,06,56,10.60
2013,07,27,06,57,10.60
2013,07,27,06,58,10.70
2013,07,27,06,59,10.70
2013,07,27,07,00,10.70
2013,07,27,07,01,10.70
2013,07,27,07,02,10.70
2013,07,27,07,03,10.70
2013,07,27,07,04,10.70
2013,07,27,07,05,10.80
2013,07,27,07,06,10.80
2013,07,27,07,07,10.80
2013,07,27,07,08,10.80
2013,07,27,07,09,10.80
2013,07,27,07,10,10.80
2013,07,27,07,11,10.80
2013,07,27,07,12,10.90
2013,07,27,07,13,10.90
2013,07,27,07,14,10.90
2013,07,27,07,15,10.90
2013,07,27,07,16,10.90
2013,07,27,07,17,11.00
2013,07,27,07,18,11.00
2013,07,27,07,19,11.10
2013,07,27,07,20,11.10
2013,07,27,07,21,11.20
2013,07,27,07,22,11.20
2013,07,27,07,23,11.30
2013,07,27,07,24,11.30
2013,07,27,07,25,11.30
2013,07,27,07,26,11.40
2013,07,27,07,27,11.40
2013,07,27,07,28,11.40
2013,07,27,07,29,11.40
2013,07,27,07,30,11.40
2013,07,27,07,31,11.50
2013,07,27,07,32,11.50
2013,07,27,07,33,11.50
2013,07,27,07,34,11.60
2013,07,27,07,35,11.60
2013,07,27,07,36,11.70
2013,07,27,07,37,11.80
2013,07,27,07,38,11.80
2013,07,27,07,39,11.80
2013,07,27,07,40,11.80
2013,07,27,07,41,11.90
2013,07,27,07,42,11.90
2013,07,27,07,43,11.90
2013,07,27,07,44,12.00
2013,07,27,07,45,12.10
2013,07,27,07,46,12.10
2013,07,27,07,47,12.10
2013,07,27,07,48,12.10
2013,07,27,07,49,12.10
2013,07,27,07,50,12.10
2013,07,27,07,51,12.10
2013,07,27,07,52,12.10
2013,07,27,07,53,12.10
2013,07,27,07,54,12.10
2013,07,27,07,55,12.10
2013,07,27,07,56,12.10
2013,07,27,07,57,12.20
2013,07,27,07,58,12.20
2013,07,27,07,59,12.10
2013,07,27,08,00,12.10
2013,07,27,08,01,12.10
2013,07,27,08,02,12.00
2013,07,27,08,03,11.90
2013,07,27,08,04,11.80
2013,07,27,08,05,11.80
2013,07,27,08,06,11.80
2013,07,27,08,07,11.80
2013,07,27,08,08,11.80
2013,07,27,08,09,11.80
2013,07,27,08,10,11.90
2013,07,27,08,11,11.90
2013,07,27,08,12,11.90
2013,07,27,08,13,12.00
2013,07,27,08,14,12.00
2013,07,27,08,15,12.00
2013,07,27,08,16,12.00
2013,07,27,08,17,12.00
2013,07,27,08,18,12.10
2013,07,27,08,19,12.10
2013,07,27,08,20,12.10
2013,07,27,08,21,12.10
2013,07,27,08,22,12.10
2013,07,27,08,23,12.10
2013,07,27,08,24,12.10
2013,07,27,08,25,12.20
2013,07,27,08,26,12.20
2013,07,27,08,27,12.20
2013,07,27,08,28,12.20
2013,07,27,08,29,12.30
2013,07,27,08,30,12.40
2013,07,27,08,31,12.50
2013,07,27,08,32,12.60
2013,07,27,08,33,12.70
2013,07,27,08,34,12.70
2013,07,27,08,35,12.80
2013,07,27,08,36,12.90
2013,07,27,08,37,12.90
2013,07,27,08,38,13.00
2013,07,27,08,39,13.10
2013,07,27,08,40,13.20
2013,07,27,08,41,13.30
2013,07,27,08,42,13.40
2013,07,27,08,43,13.40
2013,07,27,08,44,13.40
2013,07,27,08,45,13.40
2013,07,27,08,46,13.50
2013,07,27,08,47,13.50
2013,07,27,08,48,13.50
2013,07,27,08,49,13.60
2013,07,27,08,50,13.60
2013,07,27,08,51,13.60
2013,07,27,08,52,13.60
2013,07,27,08,53,13.60
2013,07,27,08,54,13.60
2013,07,27,08,55,13.70
2013,07,27,08,56,13.70
2013,07,27,08,57,13.70
2013,07,27,08,58,13.70
2013,07,27,08,59,13.70
2013,07,27,09,00,13.70
2013,07,27,09,01,13.70
2013,07,27,09,02,13.70
2013,07,27,09,03,13.70
2013,07,27,09,04,13.80
2013,07,27,09,05,13.80
2013,07,27,09,06,13.80
2013,07,27,09,07,13.80
2013,07,27,09,08,13.90
2013,07,27,09,09,13.90
2013,07,27,09,10,13.90
2013,07,27,09,11,13.80
2013,07,27,09,12,13.80
2013,07,27,09,13,13.80
2013,07,27,09,14,13.80
2013,07,27,09,15,13.70
2013,07,27,09,16,13.70
2013,07,27,09,17,13.70
2013,07,27,09,18,13.70
2013,07,27,09,19,13.60
2013,07,27,09,20,13.60
2013,07,27,09,21,13.50
2013,07,27,09,22,13.40
2013,07,27,09,23,13.40
2013,07,27,09,24,13.40
2013,07,27,09,25,13.40
2013,07,27,09,26,13.40
2013,07,27,09,27,13.40
2013,07,27,09,28,13.40
2013,07,27,09,29,13.40
2013,07,27,09,30,13.40
2013,07,27,09,31,13.40
2013,07,27,09,32,13.40
2013,07,27,09,33,13.40
2013,07,27,09,34,13.40
2013,07,27,09,35,13.40
2013,07,27,09,36,13.50
2013,07,27,09,37,13.60
2013,07,27,09,38,13.60
2013,07,27,09,39,13.70
2013,07,27,09,40,13.80
2013,07,27,09,41,13.90
2013,07,27,09,42,13.90
2013,07,27,09,43,14.00
2013,07,27,09,44,14.10
2013,07,27,09,45,14.20
2013,07,27,09,46,14.30
2013,07,27,09,47,14.40
2013,07,27,09,48,14.50
2013,07,27,09,49,14.60
2013,07,27,09,50,14.70
2013,07,27,09,51,14.80
2013,07,27,09,52,14.90
2013,07,27,09,53,15.00
2013,07,27,09,54,15.10
2013,07,27,09,55,15.20
2013,07,27,09,56,15.30
2013,07,27,09,57,15.40
2013,07,27,09,58,15.50
2013,07,27,09,59,15.50
2013,07,27,10,00,15.60
2013,07,27,10,01,15.60
2013,07,27,10,02,15.70
2013,07,27,10,03,15.70
2013,07,27,10,04,15.80
2013,07,27,10,05,15.80
2013,07,27,10,06,15.90
2013,07,27,10,07,15.90
2013,07,27,10,08,16.00
2013,07,27,10,09,16.00
2013,07,27,10,10,16.00
2013,07,27,10,11,16.10
2013,07,27,10,12,16.10
2013,07,27,10,13,16.10
2013,07,27,10,14,16.10
2013,07,27,10,15,16.20
2013,07,27,10,16,16.20
2013,07,27,10,17,16.20
2013,07,27,10,18,16.30
2013,07,27,10,19,16.30
2013,07,27,10,20,16.40
2013,07,27,10,21,16.40
2013,07,27,10,22,16.50
2013,07,27,10,23,16.50
2013,07,27,10,24,16.60
2013,07,27,10,25,16.60
2013,07,27,10,26,16.60
2013,07,27,10,27,16.60
2013,07,27,10,28,16.60
2013,07,27,10,29,16.70
2013,07,27,10,30,16.70
2013,07,27,10,31,16.70
2013,07,27,10,32,16.80
2013,07,27,10,33,16.80
2013,07,27,10,34,16.80
2013,07,27,10,35,16.80
2013,07,27,10,36,16.80
2013,07,27,10,37,16.80
2013,07,27,10,38,16.80
2013,07,27,10,39,16.90
2013,07,27,10,40,16.90
2013,07,27,10,41,16.90
2013,07,27,10,42,16.90
2013,07,27,10,43,16.90
2013,07,27,10,44,16.90
2013,07,27,10,45,16.90
2013,07,27,10,46,16.90
2013,07,27,10,47,16.80
2013,07,27,10,48,16.80
2013,07,27,10,49,16.80
2013,07,27,10,50,16.90
2013,07,27,10,51,16.90
2013,07,27,10,52,16.90
2013,07,27,10,53,16.90
2013,07,27,10,54,16.90
2013,07,27,10,55,16.90
2013,07,27,10,56,16.90
2013,07,27,10,57,16.90
2013,07,27,10,58,16.90
2013,07,27,10,59,16.90
2013,07,27,11,00,16.90
2013,07,27,11,01,16.90
2013,07,27,11,02,16.90
2013,07,27,11,03,16.90
2013,07,27,11,04,16.90
2013,07,27,11,05,16.90
2013,07,27,11,06,16.90
2013,07,27,11,07,16.80
2013,07,27,11,08,16.80
2013,07,27,11,09,16.70
2013,07,27,11,10,16.60
2013,07,27,11,11,16.60
2013,07,27,11,12,16.50
2013,07,27,11,13,16.50
2013,07,27,11,14,16.50
2013,07,27,11,15,16.50
2013,07,27,11,16,16.50
2013,07,27,11,17,16.50
2013,07,27,11,18,16.50
2013,07,27,11,19,16.40
2013,07,27,11,20,16.50
2013,07,27,11,21,16.50
2013,07,27,11,22,16.50
2013,07,27,11,23,16.50
2013,07,27,11,24,16.50
2013,07,27,11,25,16.50
2013,07,27,11,26,16.50
2013,07,27,11,27,16.50
2013,07,27,11,28,16.50
2013,07,27,11,29,16.50
2013,07,27,11,30,16.60
2013,07,27,11,31,16.60
2013,07,27,11,32,16.60
2013,07,27,11,33,16.60
2013,07,27,11,34,16.60
2013,07,27,11,35,16.60
2013,07,27,11,36,16.70
2013,07,27,11,37,16.70
2013,07,27,11,38,16.80
2013,07,27,11,39,16.80
2013,07,27,11,40,16.80
2013,07,27,11,41,16.90
2013,07,27,11,42,16.90
2013,07,27,11,43,17.00
2013,07,27,11,44,17.10
2013,07,27,11,45,17.10
2013,07,27,11,46,17.20
2013,07,27,11,47,17.20
2013,07,27,11,48,17.30
2013,07,27,11,49,17.30
2013,07,27,11,50,17.40
2013,07,27,11,51,17.40
2013,07,27,11,52,17.50
2013,07,27,11,53,17.50
2013,07,27,11,54,17.60
2013,07,27,11,55,17.60
2013,07,27,11,56,17.80
2013,07,27,11,57,17.90
2013,07,27,11,58,18.00
2013,07,27,11,59,18.10
2013,07,27,12,00,18.20
2013,07,27,12,01,18.20
2013,07,27,12,02,18.30
2013,07,27,12,03,18.40
2013,07,27,12,04,18.40
2013,07,27,12,05,18.40
2013,07,27,12,06,18.40
2013,07,27,12,07,18.40
2013,07,27,12,08,18.40
2013,07,27,12,09,18.40
2013,07,27,12,10,18.40
2013,07,27,12,11,18.40
2013,07,27,12,12,18.40
2013,07,27,12,13,18.40
2013,07,27,12,14,18.40
2013,07,27,12,15,18.40
2013,07,27,12,16,18.30
2013,07,27,12,17,18.30
2013,07,27,12,18,18.30
2013,07,27,12,19,18.30
2013,07,27,12,20,18.30
2013,07,27,12,21,18.30
2013,07,27,12,22,18.30
2013,07,27,12,23,18.30
2013,07,27,12,24,18.30
2013,07,27,12,25,18.30
2013,07,27,12,26,18.20
2013,07,27,12,27,18.20
2013,07,27,12,28,18.20
2013,07,27,12,29,18.30
2013,07,27,12,30,18.30
2013,07,27,12,31,18.30
2013,07,27,12,32,18.40
2013,07,27,12,33,18.40
2013,07,27,12,34,18.40
2013,07,27,12,35,18.50
2013,07,27,12,36,18.50
2013,07,27,12,37,18.50
2013,07,27,12,38,18.60
2013,07,27,12,39,18.60
2013,07,27,12,40,18.70
2013,07,27,12,41,18.80
2013,07,27,12,42,18.90
2013,07,27,12,43,19.10
2013,07,27,12,44,19.20
2013,07,27,12,45,19.30
2013,07,27,12,46,19.30
2013,07,27,12,47,19.30
2013,07,27,12,48,19.30
2013,07,27,12,49,19.30
2013,07,27,12,50,19.40
2013,07,27,12,51,19.40
2013,07,27,12,52,19.40
2013,07,27,12,53,19.40
2013,07,27,12,54,19.40
2013,07,27,12,55,19.40
2013,07,27,12,56,19.40
2013,07,27,12,57,19.40
2013,07,27,12,58,19.40
2013,07,27,12,59,19.40
2013,07,27,13,00,19.40
2013,07,27,13,01,19.40
2013,07,27,13,02,19.30
2013,07,27,13,03,19.30
2013,07,27,13,04,19.30
2013,07,27,13,05,19.20
2013,07,27,13,06,19.20
2013,07,27,13,07,19.20
2013,07,27,13,08,19.10
2013,07,27,13,09,19.10
2013,07,27,13,10,19.00
2013,07,27,13,11,19.00
2013,07,27,13,12,19.10
2013,07,27,13,13,19.10
2013,07,27,13,14,19.10
2013,07,27,13,15,19.20
2013,07,27,13,16,19.30
2013,07,27,13,17,19.30
2013,07,27,13,18,19.40
2013,07,27,13,19,19.40
2013,07,27,13,20,19.50
2013,07,27,13,21,19.50
2013,07,27,13,22,19.50
2013,07,27,13,23,19.50
2013,07,27,13,24,19.40
2013,07,27,13,25,19.40
2013,07,27,13,26,19.40
2013,07,27,13,27,19.40
2013,07,27,13,28,19.40
2013,07,27,13,29,19.40
2013,07,27,13,30,19.40
2013,07,27,13,31,19.40
2013,07,27,13,32,19.40
2013,07,27,13,33,19.40
2013,07,27,13,34,19.30
2013,07,27,13,35,19.30
2013,07,27,13,36,19.30
2013,07,27,13,37,19.20
2013,07,27,13,38,19.20
2013,07,27,13,39,19.20
2013,07,27,13,40,19.20
2013,07,27,13,41,19.20
2013,07,27,13,42,19.20
2013,07,27,13,43,19.20
2013,07,27,13,44,19.20
2013,07,27,13,45,19.10
2013,07,27,13,46,19.10
2013,07,27,13,47,19.10
2013,07,27,13,48,19.10
2013,07,27,13,49,19.10
2013,07,27,13,50,19.20
2013,07,27,13,51,19.20
2013,07,27,13,52,19.30
2013,07,27,13,53,19.30
2013,07,27,13,54,19.30
2013,07,27,13,55,19.30
2013,07,27,13,56,19.40
2013,07,27,13,57,19.40
2013,07,27,13,58,19.50
2013,07,27,13,59,19.50
2013,07,27,14,00,19.60
2013,07,27,14,01,19.60
2013,07,27,14,02,19.60
2013,07,27,14,03,19.60
2013,07,27,14,04,19.60
2013,07,27,14,05,19.50
2013,07,27,14,06,19.50
2013,07,27,14,07,19.40
2013,07,27,14,08,19.40
2013,07,27,14,09,19.40
2013,07,27,14,10,19.40
2013,07,27,14,11,19.50
2013,07,27,14,12,19.50
2013,07,27,14,13,19.60
2013,07,27,14,14,19.60
2013,07,27,14,15,19.60
2013,07,27,14,16,19.60
2013,07,27,14,17,19.60
2013,07,27,14,18,19.60
2013,07,27,14,19,19.60
2013,07,27,14,20,19.60
2013,07,27,14,21,19.60
2013,07,27,14,22,19.60
2013,07,27,14,23,19.70
2013,07,27,14,24,19.70
2013,07,27,14,25,19.70
2013,07,27,14,26,19.70
2013,07,27,14,27,19.80
2013,07,27,14,28,19.80
2013,07,27,14,29,19.80
2013,07,27,14,30,19.80
2013,07,27,14,31,19.70
2013,07,27,14,32,19.70
2013,07,27,14,33,19.70
2013,07,27,14,34,19.60
2013,07,27,14,35,19.60
2013,07,27,14,36,19.60
2013,07,27,14,37,19.60
2013,07,27,14,38,19.60
2013,07,27,14,39,19.60
2013,07,27,14,40,19.50
2013,07,27,14,41,19.50
2013,07,27,14,42,19.50
2013,07,27,14,43,19.40
2013,07,27,14,44,19.40
2013,07,27,14,45,19.30
2013,07,27,14,46,19.30
2013,07,27,14,47,19.30
2013,07,27,14,48,19.30
2013,07,27,14,49,19.30
2013,07,27,14,50,19.30
2013,07,27,14,51,19.30
2013,07,27,14,52,19.30
2013,07,27,14,53,19.30
2013,07,27,14,54,19.20
2013,07,27,14,55,19.20
2013,07,27,14,56,19.20
2013,07,27,14,57,19.20
2013,07,27,14,58,19.20
2013,07,27,14,59,19.30
2013,07,27,15,00,19.30
2013,07,27,15,01,19.30
2013,07,27,15,02,19.30
2013,07,27,15,03,19.30
2013,07,27,15,04,19.40
2013,07,27,15,05,19.50
2013,07,27,15,06,19.60
2013,07,27,15,07,19.70
2013,07,27,15,08,19.80
2013,07,27,15,09,19.90
2013,07,27,15,10,20.10
2013,07,27,15,11,20.20
2013,07,27,15,12,20.30
2013,07,27,15,13,20.30
2013,07,27,15,14,20.40
2013,07,27,15,15,20.40
2013,07,27,15,16,20.40
2013,07,27,15,17,20.40
2013,07,27,15,18,20.30
2013,07,27,15,19,20.30
2013,07,27,15,20,20.30
2013,07,27,15,21,20.20
2013,07,27,15,22,20.10
2013,07,27,15,23,20.10
2013,07,27,15,24,20.10
2013,07,27,15,25,20.10
2013,07,27,15,26,20.10
2013,07,27,15,27,20.10
2013,07,27,15,28,20.10
2013,07,27,15,29,20.00
2013,07,27,15,30,20.00
2013,07,27,15,31,20.00
2013,07,27,15,32,19.90
2013,07,27,15,33,19.90
2013,07,27,15,34,20.00
2013,07,27,15,35,20.10
2013,07,27,15,36,20.10
2013,07,27,15,37,20.20
2013,07,27,15,38,20.20
2013,07,27,15,39,20.20
2013,07,27,15,40,20.20
2013,07,27,15,41,20.10
2013,07,27,15,42,20.10
2013,07,27,15,43,20.00
2013,07,27,15,44,20.00
2013,07,27,15,45,19.90
2013,07,27,15,46,19.80
2013,07,27,15,47,19.60
2013,07,27,15,48,19.60
2013,07,27,15,49,19.60
2013,07,27,15,50,19.60
2013,07,27,15,51,19.60
2013,07,27,15,52,19.70
2013,07,27,15,53,19.70
2013,07,27,15,54,19.80
2013,07,27,15,55,19.80
2013,07,27,15,56,20.00
2013,07,27,15,57,20.10
2013,07,27,15,58,20.10
2013,07,27,15,59,20.20
2013,07,27,16,00,20.20
2013,07,27,16,01,20.20
2013,07,27,16,02,20.20
2013,07,27,16,03,20.20
2013,07,27,16,04,20.20
2013,07,27,16,05,20.20
2013,07,27,16,06,20.30
2013,07,27,16,07,20.30
2013,07,27,16,08,20.40
2013,07,27,16,09,20.30
2013,07,27,16,10,20.30
2013,07,27,16,11,20.30
2013,07,27,16,12,20.30
2013,07,27,16,13,20.30
2013,07,27,16,14,20.30
2013,07,27,16,15,20.20
2013,07,27,16,16,20.20
2013,07,27,16,17,20.10
2013,07,27,16,18,20.10
2013,07,27,16,19,20.10
2013,07,27,16,20,20.10
2013,07,27,16,21,20.10
2013,07,27,16,22,20.10
2013,07,27,16,23,20.10
2013,07,27,16,24,20.10
2013,07,27,16,25,20.10
2013,07,27,16,26,20.10
2013,07,27,16,27,20.10
2013,07,27,16,28,20.10
2013,07,27,16,29,20.10
2013,07,27,16,30,20.20
2013,07,27,16,31,20.20
2013,07,27,16,32,20.20
2013,07,27,16,33,20.30
2013,07,27,16,34,20.30
2013,07,27,16,35,20.30
2013,07,27,16,36,20.40
2013,07,27,16,37,20.40
2013,07,27,16,38,20.30
2013,07,27,16,39,20.40
2013,07,27,16,40,20.40
2013,07,27,16,41,20.30
2013,07,27,16,42,20.20
2013,07,27,16,43,20.10
2013,07,27,16,44,20.00
2013,07,27,16,45,19.90
2013,07,27,16,46,19.80
2013,07,27,16,47,19.80
2013,07,27,16,48,19.90
2013,07,27,16,49,20.00
2013,07,27,16,50,20.10
2013,07,27,16,51,20.20
2013,07,27,16,52,20.20
2013,07,27,16,53,20.30
2013,07,27,16,54,20.30
2013,07,27,16,55,20.40
2013,07,27,16,56,20.40
2013,07,27,16,57,20.40
2013,07,27,16,58,20.40
2013,07,27,16,59,20.40
2013,07,27,17,00,20.40
2013,07,27,17,01,20.30
2013,07,27,17,02,20.30
2013,07,27,17,03,20.20
2013,07,27,17,04,20.00
2013,07,27,17,05,19.90
2013,07,27,17,06,19.80
2013,07,27,17,07,19.70
2013,07,27,17,08,19.70
2013,07,27,17,09,19.60
2013,07,27,17,10,19.60
2013,07,27,17,11,19.50
2013,07,27,17,12,19.50
2013,07,27,17,13,19.40
2013,07,27,17,14,19.40
2013,07,27,17,15,19.40
2013,07,27,17,16,19.30
2013,07,27,17,17,19.40
2013,07,27,17,18,19.30
2013,07,27,17,19,19.30
2013,07,27,17,20,19.30